Regional Weather Roundup
Issued by NWS

Home | Current Version | Previous Version | Graphics & Text | Print | Product List | Glossary On
Versions: 1 2 3 4 5 6 7 8 9 10 11 12 13 14 15 16 17 18 19 20 21 22 23 24 25 26 27 28 29 30 31 32 33 34 35 36 37 38 39 40 41 42 43 44 45 46 47 48 49 50
000
ASUS43 KLOT 311508
RWRIL

ILLINOIS REGIONAL WEATHER ROUNDUP
NATIONAL WEATHER SERVICE CHICAGO/ROMEOVILLE IL
1000 AM CDT TUE MAY 31 2016

NOTE: "FAIR" INDICATES FEW OR NO CLOUDS BELOW 12,000 FEET WITH NO
SIGNIFICANT WEATHER AND/OR OBSTRUCTIONS TO VISIBILITY.

* THESE STATIONS ARE NOT UNDER NWS QUALITY CONTROL. THEY ALSO MAY NOT
  REPORT WEATHER SUCH AS PRECIPITATION OR FOG.

ILZ001-002-007-009-015-016-024-311600-
NORTHWEST ILLINOIS

CITY           SKY/WX    TMP DP  RH WIND       PRES   REMARKS
MOLINE         CLOUDY    72  63  73 NW5       29.96S
STERLING*      TSTM      66  62  87 N10       29.97S
SAVANNA*       CLOUDY    71  62  73 SE16      29.96R
$$

ILZ003-004-008-010-011-017-018-311600-
NORTH CENTRAL ILLINOIS

CITY           SKY/WX    TMP DP  RH WIND       PRES   REMARKS
ROCKFORD       MOSUNNY   78  59  51 SE13      29.99F
FREEPORT*      PTSUNNY   74  63  68 SE9       29.98F
ROCHELLE*      SUNNY     77  60  55 SE16      29.97F
DE KALB*       MOSUNNY   76  62  61 E14       29.99F
$$

ILZ005-006-012>014-019>023-311600-
NORTHEAST ILLINOIS

CITY           SKY/WX    TMP DP  RH WIND       PRES   REMARKS
CHICAGO-OHARE  PTSUNNY   76  54  46 E12       29.99F
CHICAGO-MIDWAY PTSUNNY   79  57  46 E10       29.99F HX  80
AURORA         SUNNY     79  60  52 SE14G21   29.98F HX  80
LANSING*       CLOUDY    76  58  53 SE8       30.00F
JOLIET*        CLOUDY    81  60  49 SE8       29.98F HX  81
WAUKEGAN       SUNNY     69  54  58 E10       30.01F
DUPAGE AIRPORT SUNNY     78  57  48 SE10      29.98F
KANKAKEE*      CLOUDY    77  58  53 E9        29.99F
WHEELING       SUNNY     75  54  47 SE9       30.01F
MORRIS*        MOSUNNY   78  58  50 SE9       29.96F
ROMEOVILLE*    MOSUNNY   79  53  40 SE10      29.99F
NORTHERLY ISL    N/A     68  56  65 NE2         N/A
$$

LMZ740>746-311600-
SOUTHERN LAKE MICHIGAN

STATION/POSITION SKY/WX   TEMP    WIND        PRES    VSBY  WAVE
                          AIR SEA DIR/SP/G                  HT/PER
                          (F)     (DEG/KT/KT) (MB)    (MI)  (FT/S)
SOUTHERN BUOY              57 54   80/  8/  8 1016.3F         0
WILMETTE HARBOR            64 60  120/  2/  2   N/A           1
HARRISON CRIB              65     100/  3/  3   N/A
BURNHAM HARBOR             67      30/  3/  5   N/A
CALUMET HARBOR             66      50/  2/  3 1015.6R
BURNS HARBOR               74     150/  4/  9 1016.6S
MICHIGAN CITY              73      90/  7/  9   N/A
MICHIGAN CITY 6N           67 61   70/  6/  8   N/A           0
ST. JOSEPH                 71 65   90/  8/ 10   N/A           1
$$

ILZ025>027-034>036-040-047-049-050-058-095>099-311600-
WEST-CENTRAL ILLINOIS

CITY           SKY/WX    TMP DP  RH WIND       PRES   REMARKS
QUINCY         CLOUDY    75  62  64 CALM      29.98S
GALESBURG*     CLOUDY    71  61  71 W3        29.98F
MACOMB*        CLOUDY    71  62  72 CALM      30.01S
JACKSONVILLE*  CLOUDY    72  63  74 S5        29.99R
PITTSFIELD*    CLOUDY    73  65  75 S6        30.01R
$$

ILZ028>032-037-038-041>044-048-051>054-059>061-311600-
CENTRAL ILLINOIS

CITY           SKY/WX    TMP DP  RH WIND       PRES   REMARKS
PONTIAC        MOSUNNY   82  64  52 SE10      29.97F HX  84
BLOOMINGTON    CLOUDY    78  65  64 SE7       29.99F HX  80
DECATUR        MOSUNNY   78  62  57 SE6       29.98F HX  80
PEORIA         MOSUNNY   77  65  66 S7        29.97F
LACON*         CLOUDY    70  61  71 SE3       29.96S
LINCOLN*       CLOUDY    79  66  63 CALM      29.97S HX  81
SPRINGFIELD    CLOUDY    77  62  59 NW6       29.98S
TAYLORVILLE    CLOUDY    78  62  57 E6        29.97F HX  80
$$

ILZ033-039-045-046-055>057-062-063-311600-
EAST-CENTRAL ILLINOIS

CITY           SKY/WX    TMP DP  RH WIND       PRES   REMARKS
CHAMPAIGN      CLOUDY    79  59  50 S8        29.98F HX  80
RANTOUL*       CLOUDY    81  61  49 SE5       29.98F HX  82
MATTOON        CLOUDY    76  63  64 CALM      29.98F
PARIS*         CLOUDY    79  63  57 CALM      29.99F HX  80
$$

ILZ079-100>102-311600-
SOUTHWEST ILLINOIS

CITY           SKY/WX    TMP DP  RH WIND       PRES   REMARKS
ALTON          CLOUDY    68  63  83 N7        29.99F
BELLEVILLE     CLOUDY    75  65  71 N8        29.97F
CAHOKIA*       CLOUDY    74  63  68 N7        29.98F
SPARTA*        CLOUDY    74  64  71 N3        29.99S
$$

ILZ064>066-069>071-074>076-080>082-084>086-088>090-092>094-311600-
SOUTH-CENTRAL ILLINOIS

CITY           SKY/WX    TMP DP  RH WIND       PRES   REMARKS
CARBONDALE     PTSUNNY   79  65  62 SE5       29.97F HX  81
CAIRO*         CLOUDY    76  67  72 SW5       29.99R
EFFINGHAM*     SUNNY     80  66  61 E5        29.99S HX  82
MARION         PTSUNNY   77  68  73 SE5       29.99
MT. VERNON     PTSUNNY   81  66  61 E3        29.98S HX  83
CENTRALIA*     PTSUNNY   82  68  62 E5        29.97S HX  85
SALEM*         SUNNY     82  63  52 E5        29.97S HX  83
METROPOLIS*    CLOUDY    79  68  68 CALM      29.98F HX  81
$$

ILZ067-068-072-073-078-083-087-091-311600-
SOUTHEAST ILLINOIS

CITY           SKY/WX    TMP DP  RH WIND       PRES   REMARKS
LAWRENCEVILLE  MOSUNNY   83  59  44 SE9       29.98F HX  83
FLORA*         MOSUNNY   82  66  57 SE7       29.98S HX  84
FAIRFIELD*     MOSUNNY   83  63  51 E6        29.97R HX  84
HARRISBURG*    CLOUDY    80  67  64 SE5       29.98S HX  82
ROBINSON*      CLOUDY    78  67  68 SE5       29.98F HX  80
CARMI*         CLOUDY    81  62  52 SE7       29.97S HX  82
$$

ABBREVIATIONS USED IN REMARKS
   TC - TEMPERATURE IN CELSIUS
  WCI - WIND CHILL INDEX
   HX - HEAT INDEX
  VSB - VISIBILITY
$$




USA.gov is the U.S. government's official web portal to all federal, state and local government web resources and services.